Volver al catálogo

OMNI-M1

ActivoMilitarMEO
NORAD 26857·PAYLOAD·🇳🇮 Nicaragua

Lanzado Jun 19, 2001 desde Cape Canaveral Space Force Station

Loading…

Próximos Pases (próximas 24 horas)

TLE

ActualizadoSource: Space-Track

Época: Sep 14, 2026, 15:52 UTC

1 26857U 01026A   26257.66163825 -.00000002  00000-0  00000-0 0  9999
2 26857  44.8087 224.6432 0014289  68.2205 291.9390  3.92403071209082

Sigue OMNI-M1 en tiempo real con AllMySat

Download on the App Store